STERLING GA US current weather conditions

sailwx.info

Wind from 193 at 1 knots gusting 4

Air temperature 28.3° C
Dewpoint 23.0° C

Last reported at 2020-Jul-15 01:04 UTC.
Time now 2020-Jul-15 01:50 UTC

Location: N 31°15' W 081°37'.
View on Google Maps.

See reports from other nearby stations

  
Tides and Currents Weather Stations Pressure Air Temp Water Temp Dewpoint Dewpoint Depression Visibility Wind Speed Wind Dir Waves Ship Positions
date/time (UTC)wind fromknots sea level pressurealtimeterstation pressurevisibilityair tempwater tempwave heightnotes
2020-Jul-15 01:04 193 1 gusting 4 28.3
2020-Jul-15 00:04 179 2 gusting 6 30.0
2020-Jul-14 23:04 167 3 gusting 10 31.1
2020-Jul-14 22:04 083 2 gusting 6 33.9
2020-Jul-14 21:04 206 1 gusting 5 36.7
2020-Jul-14 20:04 272 2 gusting 6 36.7
2020-Jul-14 19:04 210 0 gusting 6 36.7
2020-Jul-14 18:04 233 1 gusting 6 36.1
2020-Jul-14 09:04 248 0 24.4
2020-Jul-14 07:04 23.9
2020-Jul-14 06:04
2020-Jul-14 05:04 24.4
2020-Jul-14 04:04 25.0
2020-Jul-14 03:04 25.6
2020-Jul-14 02:04 26.1
2020-Jul-14 01:04 27.8
2020-Jul-14 00:04 32.2
2020-Jul-13 23:04 217 0 gusting 6 34.4
2020-Jul-13 22:04 243 1 gusting 6 35.0
2020-Jul-13 21:04 234 1 gusting 9 35.0
2020-Jul-13 20:04 212 3 gusting 11 34.4
2020-Jul-13 19:04 249 2 gusting 11 33.9
2020-Jul-13 18:04 265 4 gusting 13 33.9
2020-Jul-13 17:04 237 3 gusting 8 33.3
2020-Jul-13 16:04 203 3 gusting 7 31.7
2020-Jul-13 15:04 208 3 gusting 7 30.0
2020-Jul-13 14:04 238 2 gusting 7 28.9
2020-Jul-13 13:04 256 0 gusting 4 27.8
2020-Jul-13 12:04 201 0 gusting 4 25.0
2020-Jul-13 11:04 23.3
2020-Jul-13 10:04 207 0 gusting 2 22.8
2020-Jul-13 09:04 22.8
2020-Jul-13 08:04 23.3
2020-Jul-13 07:04 23.9
2020-Jul-13 06:04 24.4
2020-Jul-13 05:04 25.0
2020-Jul-13 04:04 185 1 gusting 3 25.6
2020-Jul-13 03:04 176 1 gusting 3 26.1
2020-Jul-13 02:04 25.0
2020-Jul-13 01:04 26.1